STARLINK-1321, 45573

Orbit data source: Space-Track

STARLINK-1321, 45573 is a payload satellite owned by SpaceX/Seattle (US) in LEO that was launched on Wed, 22 Apr 2020 UTC via an FALCON 9 launch vehicle from the Air Force Eastern Test Range (AFETR). Payload-class satellites include a variety of spacecraft equipped with specific instruments for various scientific and technological missions. These include communications satellites like Starlink; space stations such as the ISS; scientific satellites like the Hubble; Earth observation satellites from companies like Planet Labs, Umbra, and HawkEye 360; GPS; miniature CubeSats for education and research; and military/defense satellites.

Loading next visibility...
Identifier
45573, 2020-025AU
Orbit
LEO
Country
Flag of USUS
Related business
Manufacturer
SpaceX/Seattle
Mission
Partially operational Commercial Communications
Bus & Motor
STARLINK, Unknown motor
Mass
260 kg wet, ~248 kg dry
Launch date (UTC)
2020-04-22 (6 years ago)
Launch vehicle
FALCON 9
Launch site
Air Force Eastern Test Range (AFETR)
Object type
Payload
Rocket body
Debris
Shape & HBR
Box + 1 Pan, 10.1 m
Radar Cross Section
13.562 m², Large (>1 m²)

Expand to show TLE details & history
Last TLE update: 10 hours ago

TLE from 10 hours ago
0 STARLINK-1321
1 45573U 20025AU  26170.55828401  .00437915  00000-0  39982-2 0  9994
2 45573  53.0421 284.4067 0003244 151.5177 208.6016 15.65949362341339
Epoch: 2026-06-19T13:23Z
TLE epoch observation values (Epoch: 2026-06-19T13:23:55.738Z)
Latitude
0.00002°
Longitude
175.63894°
Altitude
373.333 km
Speed
7.686 km/s
True Right ascension
18h 57m 37s
True Declination
0° 00' 00"
Sunlit
Object was in full shadow at epoch
Visualization orbit readout
Latitude
Unknown
Longitude
Unknown
Altitude
Unknown
Speed
Unknown
Apparent Right ascension
Unknown
Apparent Declination
Unknown
Sunlit
N/A
Visualization observer readout
Local Sidereal Time
09:48:53
Azimuth
Unknown
Elevation
Unknown
Doppler factor
Unknown
Orbital elements
Apogee altitude
372.979 km
Perigee altitude
368.6 km
Semi-major axis
6,748.926 km
Eccentricity
0.00032
Inclination
53.0421°
RAAN
284.4067°
Arg. of periapsis
151.5177°
True anomaly
208.58381°
Mean anomaly
208.6016°
Eccentric anomaly
208.5927°
Mean motion
3.91463 °/min
Orbital period
91.96 mins
BSTAR
0.0039982
Loading maneuver chart data...
Computing Atmospheric mass density...

Documentation

Showing up to 5 results
|